KJ4AJP Weather Reports


Display with metric or nautical units.
time (UTC)temp
F
wind
direction
speed
MPH
gust
MPH
rain 1hr
in
rain 24hr
in
rain mn
in
humidity
%
barometer
mb
20180620094213 71 166 0.0 2.0 0.00 0.00 0.00 99 1012.6
20180620093313 71 149 1.0 3.0 0.00 0.00 0.00 99 1012.4
20180620092413 71 159 0.0 3.0 0.00 0.00 0.00 99 1012.7
20180620090614 71 173 0.0 2.0 0.00 0.00 0.00 99 1012.7
20180620085713 71 164 1.0 2.0 0.00 0.00 0.00 99 1012.9
20180620084813 71 195 0.0 2.0 0.00 0.00 0.00 99 1012.6
20180620083913 71 186 1.0 4.0 0.00 0.00 0.00 99 1012.6
20180620083013 71 136 0.0 2.0 0.00 0.00 0.00 99 1012.4
20180620082113 71 135 0.0 2.0 0.00 0.00 0.00 99 1012.3
20180620081213 71 142 0.0 2.0 0.00 0.00 0.00 99 1012.5
20180620080313 71 0 0.0 0.0 0.00 0.00 0.00 99 1012.6
20180620075413 72 181 0.0 1.0 0.00 0.00 0.00 99 1012.5
20180620074513 72 151 0.0 1.0 0.00 0.00 0.00 99 1012.6
20180620073613 72 152 0.0 2.0 0.00 0.00 0.00 99 1012.4
20180620072713 72 158 0.0 2.0 0.00 0.00 0.00 99 1012.6
20180620071813 72 177 1.0 2.0 0.00 0.00 0.00 98 1012.5
20180620070913 72 221 1.0 3.0 0.00 0.00 0.00 98 1012.6
20180620070013 72 165 1.0 4.0 0.00 0.00 0.00 98 1012.6
20180620065113 72 172 1.0 4.0 0.00 0.00 0.00 97 1012.5
20180620064213 73 148 1.0 3.0 0.00 0.00 0.00 97 1012.6
20180620063313 73 150 2.0 2.0 0.00 0.00 0.00 97 1012.7
20180620062413 73 128 1.0 3.0 0.00 0.00 0.00 96 1012.4
20180620061513 73 128 1.0 2.0 0.00 0.00 0.00 96 1012.8
20180620060613 74 0 0.0 0.0 0.00 0.00 0.00 94 1012.6
20180620055713 74 145 0.0 2.0 0.00 0.00 0.00 94 1012.8
20180620054813 74 155 1.0 2.0 0.00 0.00 0.00 93 1013.0
20180620053913 74 142 1.0 3.0 0.00 0.00 0.00 93 1012.7
20180620053013 75 172 0.0 2.0 0.00 0.00 0.00 92 1012.9
20180620052113 75 169 1.0 3.0 0.00 0.00 0.00 92 1012.9
20180620051213 75 168 0.0 3.0 0.00 0.00 0.00 91 1012.9
20180620050313 76 160 0.0 4.0 0.00 0.00 0.00 91 1012.8
20180620045413 76 142 1.0 3.0 0.00 0.00 0.00 91 1013.0
20180620044513 76 148 2.0 4.0 0.00 0.00 0.00 90 1012.9
20180620043613 76 163 2.0 4.0 0.00 0.00 0.00 90 1013.1
20180620042713 76 165 1.0 4.0 0.00 0.00 0.00 90 1013.2
20180620041813 77 184 1.0 4.0 0.00 0.00 0.00 89 1013.2
20180620040913 77 179 1.0 3.0 0.00 0.00 0.00 89 1013.0
20180620040013 77 144 1.0 4.0 0.00 0.00 0.00 89 1013.1
20180620035113 77 171 1.0 3.0 0.00 0.00 0.00 88 1013.2
20180620034213 78 141 1.0 3.0 0.00 0.00 0.00 88 1013.2
20180620033313 78 165 2.0 4.0 0.00 0.00 0.00 88 1013.1
20180620032413 78 174 1.0 4.0 0.00 0.00 0.00 88 1013.1
20180620031513 78 167 1.0 4.0 0.00 0.00 0.00 88 1012.9
20180620030613 78 169 1.0 3.0 0.00 0.00 0.00 88 1013.0
20180620025713 79 169 2.0 3.0 0.00 0.00 0.00 87 1013.1
20180620024813 79 174 1.0 4.0 0.00 0.00 0.00 87 1012.9
20180620023913 79 173 0.0 4.0 0.00 0.00 0.00 87 1012.9
20180620023013 79 158 2.0 4.0 0.00 0.00 0.00 86 1012.9
20180620022113 80 167 1.0 4.0 0.00 0.00 0.00 86 1013.0
20180620021213 80 171 1.0 2.0 0.00 0.00 0.00 85 1013.0
20180620020313 81 170 1.0 3.0 0.00 0.00 0.00 84 1012.7
20180620015413 81 171 0.0 3.0 0.00 0.00 0.00 83 1012.6
20180620014513 82 173 0.0 2.0 0.00 0.00 0.00 82 1012.7
20180620013613 82 163 1.0 4.0 0.00 0.00 0.00 81 1012.6
20180620012713 83 161 1.0 4.0 0.00 0.00 0.00 80 1012.8
20180620011813 83 146 1.0 3.0 0.00 0.00 0.00 79 1012.7
20180620010912 84 142 1.0 2.0 0.00 0.00 0.00 78 1012.7
20180620010013 85 200 0.0 3.0 0.00 0.00 0.00 76 1013.0
20180620005112 85 236 1.0 4.0 0.00 0.00 0.00 74 1012.7
20180620004213 86 218 1.0 5.0 0.00 0.00 0.00 74 1012.8
20180620003313 86 241 2.0 5.0 0.00 0.00 0.00 73 1012.8
20180620002413 87 214 2.0 5.0 0.00 0.00 0.00 72 1012.6
20180620001513 87 215 2.0 7.0 0.00 0.00 0.00 72 1012.8
20180620000613 87 222 3.0 8.0 0.00 0.00 0.00 71 1012.9
20180619235713 87 223 4.0 8.0 0.00 0.00 0.00 71 1012.8
20180619234813 87 211 1.0 8.0 0.00 0.00 0.00 70 1012.7
20180619233913 88 211 3.0 8.0 0.00 0.00 0.00 70 1012.7
20180619233013 88 227 3.0 6.0 0.00 0.00 0.00 69 1012.5
20180619232113 88 204 3.0 10.0 0.00 0.00 0.00 69 1012.7
20180619231213 88 201 6.0 10.0 0.00 0.00 0.00 68 1012.6
20180619230313 88 216 4.0 10.0 0.00 0.00 0.00 68 1012.8
20180619225413 89 275 4.0 9.0 0.00 0.00 0.00 68 1012.7
20180619224512 89 218 3.0 11.0 0.00 0.00 0.00 67 1012.6
20180619223613 89 234 6.0 11.0 0.00 0.00 0.00 67 1012.7
20180619222712 90 204 6.0 16.0 0.00 0.00 0.00 66 1012.7
20180619221813 90 196 5.0 11.0 0.00 0.00 0.00 65 1013.0
20180619220913 91 217 5.0 13.0 0.00 0.00 0.00 65 1013.3
20180619220013 91 191 8.0 13.0 0.00 0.00 0.00 65 1013.2
20180619215112 91 212 4.0 11.0 0.00 0.00 0.00 65 1013.3
20180619214213 91 248 3.0 13.0 0.00 0.00 0.00 65 1013.3
20180619213313 91 226 2.0 10.0 0.00 0.00 0.00 67 1013.4
20180619212413 90 228 3.0 10.0 0.00 0.00 0.00 69 1013.4
20180619211513 90 234 4.0 12.0 0.00 0.00 0.00 67 1013.6
20180619210613 90 219 5.0 15.0 0.00 0.00 0.00 68 1013.5
20180619205713 90 209 4.0 14.0 0.00 0.00 0.00 68 1013.6
20180619204813 90 246 3.0 10.0 0.00 0.00 0.00 69 1013.7
20180619203912 89 264 4.0 8.0 0.00 0.00 0.00 69 1013.8
20180619203013 90 257 4.0 13.0 0.00 0.00 0.00 70 1014.0
20180619202112 90 240 6.0 9.0 0.00 0.00 0.00 70 1014.2
20180619201212 91 243 4.0 12.0 0.00 0.00 0.00 68 1014.4
20180619200312 91 235 4.0 12.0 0.00 0.00 0.00 68 1014.1
20180619195412 91 311 4.0 17.0 0.00 0.00 0.00 69 1014.3
20180619194512 90 270 1.0 12.0 0.00 0.00 0.00 70 1014.5
20180619193613 89 264 8.0 12.0 0.00 0.00 0.00 70 1014.6
20180619192712 89 232 2.0 12.0 0.00 0.00 0.00 69 1014.8
20180619191812 90 284 6.0 12.0 0.00 0.00 0.00 68 1015.0
20180619190912 90 233 4.0 8.0 0.00 0.00 0.00 70 1015.1
20180619190013 90 259 1.0 11.0 0.00 0.00 0.00 71 1015.2
20180619185112 89 214 2.0 11.0 0.00 0.00 0.00 71 1015.3
20180619184212 89 207 3.0 9.0 0.00 0.00 0.00 71 1015.5
20180619183312 88 234 4.0 11.0 0.00 0.00 0.00 70 1015.5
20180619182412 88 236 7.0 15.0 0.00 0.00 0.00 70 1015.5
20180619181512 89 257 6.0 15.0 0.00 0.00 0.00 69 1015.8
20180619180612 89 239 4.0 9.0 0.00 0.00 0.00 70 1015.9
20180619175712 90 252 7.0 12.0 0.00 0.00 0.00 68 1015.8
20180619174812 90 235 4.0 14.0 0.00 0.00 0.00 68 1015.8
20180619173912 90 239 4.0 13.0 0.00 0.00 0.00 71 1015.9
20180619173012 90 259 8.0 15.0 0.00 0.00 0.00 71 1016.0
20180619172112 89 232 3.0 13.0 0.00 0.00 0.00 73 1016.0
20180619171212 90 237 4.0 11.0 0.00 0.00 0.00 74 1016.1
20180619170312 89 237 6.0 13.0 0.00 0.00 0.00 74 1016.4
20180619165412 88 258 2.0 15.0 0.00 0.00 0.00 77 1016.3
20180619164512 88 261 3.0 13.0 0.00 0.00 0.00 76 1016.4
20180619163612 87 228 7.0 15.0 0.00 0.00 0.00 77 1016.6
20180619162712 87 232 5.0 13.0 0.00 0.00 0.00 76 1016.5
20180619161812 87 241 5.0 11.0 0.00 0.00 0.00 76 1016.6
20180619160912 87 275 4.0 14.0 0.00 0.00 0.00 75 1016.6
20180619160012 87 250 4.0 13.0 0.00 0.00 0.00 76 1016.6
20180619155112 87 273 4.0 12.0 0.00 0.00 0.00 77 1016.8
20180619154212 87 254 6.0 9.0 0.00 0.00 0.00 79 1016.6
20180619153312 87 257 3.0 7.0 0.00 0.00 0.00 80 1016.9
20180619152412 86 244 2.0 11.0 0.00 0.00 0.00 81 1016.9
20180619151512 85 229 4.0 11.0 0.00 0.00 0.00 82 1017.0
20180619150612 85 244 5.0 15.0 0.00 0.00 0.00 81 1016.8
20180619145712 85 239 3.0 12.0 0.00 0.00 0.00 81 1016.9
20180619144812 84 255 5.0 10.0 0.00 0.00 0.00 82 1016.9
20180619143912 84 229 4.0 11.0 0.00 0.00 0.00 84 1016.7
20180619143012 83 243 5.0 11.0 0.00 0.00 0.00 84 1016.5
20180619142112 83 250 4.0 9.0 0.00 0.00 0.00 86 1017.0
20180619141212 82 242 4.0 9.0 0.00 0.00 0.00 88 1016.9
20180619140312 82 236 2.0 8.0 0.00 0.00 0.00 91 1017.1
20180619135412 81 235 2.0 10.0 0.00 0.00 0.00 91 1017.0
20180619134512 80 237 3.0 7.0 0.00 0.00 0.00 94 1016.8
20180619133612 80 247 2.0 5.0 0.00 0.00 0.00 96 1017.0
20180619132712 79 227 2.0 7.0 0.00 0.00 0.00 96 1016.9
20180619131812 78 217 3.0 9.0 0.00 0.00 0.00 97 1016.9
20180619130912 78 214 3.0 9.0 0.00 0.00 0.00 99 1016.9
20180619130012 78 236 2.0 8.0 0.00 0.00 0.00 99 1017.0
20180619125112 77 210 2.0 6.0 0.00 0.00 0.00 99 1017.0
20180619124212 76 201 2.0 5.0 0.00 0.00 0.00 99 1017.1
20180619123312 76 201 4.0 6.0 0.00 0.00 0.00 99 1016.8
20180619122412 75 198 4.0 6.0 0.00 0.00 0.00 99 1016.9
20180619121512 74 210 2.0 6.0 0.00 0.00 0.00 99 1017.0
20180619120613 73 219 2.0 4.0 0.00 0.00 0.00 99 1017.0
20180619115712 73 187 1.0 2.0 0.00 0.00 0.00 99 1017.1
20180619114812 72 221 1.0 4.0 0.00 0.00 0.00 99 1016.8
20180619113912 72 228 1.0 2.0 0.00 0.00 0.00 99 1016.8
20180619113012 71 248 0.0 2.0 0.00 0.00 0.00 99 1016.7
20180619112113 71 168 0.0 2.0 0.00 0.00 0.00 99 1016.7
20180619111212 71 181 0.0 2.0 0.00 0.00 0.00 99 1016.7
20180619110312 71 0 0.0 0.0 0.00 0.00 0.00 99 1016.8
20180619105412 71 79 0.0 2.0 0.00 0.00 0.00 99 1016.5
20180619104512 71 117 1.0 2.0 0.00 0.00 0.00 99 1016.5
20180619103613 72 136 1.0 2.0 0.00 0.00 0.00 99 1016.3
20180619102712 72 153 1.0 2.0 0.00 0.00 0.00 99 1016.2
20180619101812 72 121 1.0 2.0 0.00 0.00 0.00 99 1016.2
20180619100912 72 172 1.0 2.0 0.00 0.00 0.00 99 1016.3
20180619100012 72 171 0.0 1.0 0.00 0.00 0.00 99 1016.3
20180619095113 72 131 0.0 2.0 0.00 0.00 0.00 99 1016.4